Wetbulb
70.21 72.74 74.98 74.72 74.32 73.80 73.42 73.22 72.96 72.58 72.44 72.40 72.41 72.30 72.20 72.08 71.48 70.44 70.34 70.78 71.17 71.67 72.51 72.34 71.62 71.05 70.63 70.37 69.80 69.27 69.01 68.78 69.54 69.75 69.13 67.96 68.48 69.91 69.42 68.55 68.00 67.53 69.28
71.50 73.02 74.63 74.74 73.88 73.31 73.04 72.88 72.71 72.62 72.70 72.65 72.59 72.74 72.97 72.91 72.80 72.45 72.09 71.56 71.33 71.34 71.36 71.62 72.13 72.14 71.21 70.63 70.19 69.71 69.17 68.65 68.15 68.29 69.14 69.08 69.41 69.04 69.02 69.13 68.38 66.87 67.87
71.49 72.68 73.08 74.09 73.40 72.97 72.79 72.94 73.07 72.91 72.44 72.11 71.91 71.76 71.57 71.44 71.32 71.17 71.36 71.44 71.64 71.73 71.82 72.20 72.30 71.52 71.40 71.51 71.25 71.02 70.65 69.88 69.13 69.46 69.18 65.91 64.77 69.08 70.65 70.39 69.91 69.15 68.02
71.22 71.83 72.16 73.86 73.54 73.32 72.63 71.71 71.24 71.05 70.69 70.46 70.22 70.08 69.84 69.53 69.04 68.74 68.68 68.64 68.81 69.04 69.37 69.82 70.21 70.69 71.38 71.67 71.46 71.48 71.53 71.38 70.87 69.57 67.37 66.28 65.06 69.40 70.89 68.92 68.77 69.60 70.69
70.56 71.49 72.41 73.26 72.20 71.43 70.88 70.38 69.79 69.48 68.96 68.59 68.31 67.82 67.60 67.40 67.08 66.48 66.12 65.94 65.76 65.94 66.42 66.94 67.29 67.90 68.66 69.15 70.28 71.54 71.62 71.66 71.13 70.10 67.62 66.84 65.97 69.74 70.50 69.16 68.40 68.73 70.17
67.51 68.39 70.29 71.30 70.44 69.80 69.15 68.64 68.09 67.32 66.77 66.18 65.78 65.47 65.02 64.52 64.28 64.24 64.15 64.01 64.24 64.27 64.30 64.53 64.61 64.93 65.68 66.37 67.34 68.29 69.02 70.21 70.20 68.11 67.45 67.39 67.43 68.58 69.92 69.20 68.84 68.88 69.47
65.72 67.01 67.96 69.40 68.73 68.18 67.49 66.76 66.03 65.44 64.65 63.99 63.55 63.53 63.37 63.29 63.80 63.45 63.33 63.47 63.57 63.75 63.84 63.92 63.85 63.78 63.87 64.11 64.60 65.31 65.74 66.11 65.93 66.92 66.99 66.62 67.54 70.77 69.92 69.04 68.03 68.24 69.07
64.00 63.85 65.08 67.22 66.81 66.11 65.38 64.74 64.14 63.68 63.07 62.38 61.84 62.21 62.71 62.93 62.89 62.52 62.28 62.53 62.54 62.75 62.98 63.08 63.25 63.30 63.24 63.17 63.03 62.96 63.31 64.42 61.48 61.78 65.62 66.79 68.09 70.75 70.45 69.09 68.66 69.45 69.71
62.31 61.17 61.32 61.59 62.87 63.80 63.19 62.61 62.08 61.65 61.21 61.05 61.28 61.31 61.54 61.77 62.16 61.47 60.76 61.37 61.61 61.91 62.27 62.51 62.86 63.26 63.60 63.90 64.07 63.54 63.98 63.51 58.65 57.16 59.61 63.87 68.68 71.06 70.16 69.35 69.55 70.11 70.08
58.01 58.35 57.57 58.48 57.55 56.21 56.95 61.07 61.01 60.99 61.04 60.77 60.54 60.21 60.27 61.03 61.51 60.50 59.67 60.22 61.14 61.54 62.10 62.17 62.78 62.65 62.91 62.94 64.41 64.87 63.94 62.83 54.16 54.60 57.76 61.29 68.31 69.32 69.22 69.09 69.29 69.61 69.46
54.49 53.95 53.71 53.87 54.28 53.95 55.22 58.60 60.26 60.82 60.37 60.44 58.76 59.83 56.69 54.61 54.17 56.20 59.25 59.85 61.07 60.87 61.01 60.98 61.27 61.61 62.17 60.06 61.90 62.43 61.93 55.25 52.33 54.83 63.86 67.39 67.93 68.40 68.48 68.48 68.61 68.77 69.02
51.97 52.90 53.42 52.74 52.08 52.17 56.80 54.94 54.16 56.27 54.49 53.49 52.50 52.04 52.14 52.25 53.73 55.98 56.50 59.55 58.93 58.96 58.63 59.32 59.73 58.89 55.94 52.38 53.62 56.93 53.34 53.24 53.74 59.36 62.96 66.25 65.98 66.48 66.32 66.62 66.73 67.25 67.72
52.41 53.40 53.64 53.49 53.31 53.40 53.21 52.65 52.74 52.85 52.97 52.12 51.47 51.75 51.37 52.06 50.53 50.64 50.50 50.57 50.23 53.38 49.51 50.42 49.77 49.96 49.20 50.33 51.36 52.05 52.17 52.96 53.06 59.31 62.60 65.25 64.91 65.53 65.93 65.62 66.21 66.37 66.49
52.19 52.61 53.63 53.44 53.52 53.20 53.09 52.73 52.47 53.31 52.18 50.98 51.45 51.47 49.91 49.18 48.29 48.40 48.00 47.58 46.74 46.91 46.05 46.08 46.28 47.34 48.35 49.47 50.10 50.16 50.45 51.88 53.31 58.39 61.05 63.40 63.94 64.49 64.25 64.69 64.76 65.23 65.47
51.73 52.12 52.61 52.78 52.94 53.96 53.68 52.14 51.73 51.40 50.63 50.94 51.03 50.84 49.52 48.12 46.91 47.52 46.23 46.07 45.75 46.12 45.66 45.57 45.51 46.44 46.93 48.34 49.02 48.94 49.82 51.00 52.96 58.68 58.65 60.52 60.98 61.75 62.56 63.40 63.71 63.97 64.14
51.94 52.07 52.50 52.64 52.61 53.72 52.66 52.11 51.75 51.17 50.75 51.03 50.29 49.77 49.48 47.89 46.67 46.63 46.25 45.82 45.52 45.83 46.11 45.78 45.00 45.45 45.83 46.62 47.25 48.18 50.71 51.59 53.23 57.19 56.88 57.69 58.90 59.25 59.74 61.20 62.04 62.45 62.89
51.45 52.35 52.14 52.57 53.29 52.61 52.42 51.85 51.64 50.94 51.54 50.15 50.53 50.07 49.14 48.53 46.66 46.36 46.11 45.41 45.29 46.13 46.55 45.99 45.60 45.92 45.72 47.02 45.27 47.40 52.27 52.72 54.56 57.58 57.59 57.25 56.28 56.79 56.83 57.39 58.04 58.75 59.73
51.18 51.34 52.41 54.44 52.72 52.50 51.96 51.43 51.20 51.05 49.96 50.06 49.80 49.18 49.57 49.11 47.53 46.12 45.84 45.27 45.56 46.10 45.84 45.13 44.76 45.03 44.77 44.77 44.49 46.58 50.75 52.30 52.34 52.09 51.31 50.34 49.63 50.72 51.96 54.80 55.34 55.82 56.38
50.71 50.98 50.74 51.93 51.59 52.28 51.83 51.55 50.78 50.91 49.83 49.36 49.08 48.85 49.77 49.19 48.30 46.09 45.39 45.30 45.47 45.47 44.74 44.40 44.06 43.84 43.67 44.23 46.10 47.41 49.99 49.90 51.08 52.19 49.13 48.56 48.75 47.97 46.98 51.66 51.42 52.58 53.22
50.14 50.52 50.64 51.43 51.01 51.10 51.32 51.17 50.46 49.80 49.63 49.58 49.14 48.78 49.36 48.24 47.93 45.92 45.39 44.94 45.23 44.44 43.86 43.32 42.92 43.99 43.91 44.16 47.23 47.09 47.96 49.25 49.40 49.25 48.85 49.56 47.62 46.45 45.17 44.54 43.57 44.83 50.41
49.40 50.08 50.79 50.64 50.04 50.90 49.85 48.97 48.25 47.33 48.72 48.94 49.66 50.30 49.69 49.02 48.79 46.46 45.03 44.70 44.43 43.66 43.02 43.73 43.62 43.29 43.24 44.76 42.90 43.78 46.45 48.42 48.43 48.35 48.36 48.40 48.17 46.37 44.24 43.02 41.72 40.86 42.29
48.52 49.61 49.94 50.36 50.25 50.21 49.57 48.47 48.43 47.78 48.34 48.65 49.75 49.94 50.21 49.67 49.17 48.07 44.72 44.47 43.93 43.52 43.15 42.70 42.16 42.39 42.99 44.18 41.88 41.14 39.11 43.54 44.26 47.77 47.08 47.16 45.86 46.45 44.36 42.75 40.85 39.86 39.13
47.83 48.11 49.74 50.28 50.45 50.21 49.83 49.41 48.80 48.71 48.48 47.78 47.99 48.41 49.74 49.78 49.35 48.52 47.17 45.18 44.05 43.59 42.47 42.15 41.42 41.72 40.74 42.58 43.09 40.67 36.64 37.02 39.52 44.71 45.55 45.47 44.50 44.13 42.90 42.10 40.40 39.39 38.43
48.24 48.16 49.72 50.16 50.24 50.45 50.50 49.34 47.77 46.77 46.16 47.29 46.89 47.85 48.25 49.27 48.52 48.80 48.16 46.57 44.96 44.11 42.76 41.97 42.76 41.02 41.08 39.72 42.22 45.02 41.99 41.53 38.30 37.74 42.42 43.25 44.44 43.91 42.14 41.03 39.48 38.04 37.51
49.16 48.09 48.48 49.43 49.97 50.13 50.08 49.05 47.63 46.46 46.94 47.23 47.01 46.96 47.00 47.72 48.29 48.46 47.90 46.48 45.27 44.57 43.53 42.28 41.15 40.48 40.47 39.94 40.27 40.68 40.07 39.70 39.49 38.89 36.58 38.69 40.06 42.41 42.36 40.38 39.60 36.93 37.23
48.41 48.28 48.17 49.01 49.43 49.76 49.60 49.03 47.97 47.17 47.13 46.79 46.69 46.41 46.89 47.58 48.04 47.67 47.77 46.27 45.33 44.42 43.40 42.48 41.38 40.26 39.68 39.86 40.11 39.96 40.11 38.46 37.19 37.12 36.02 35.77 35.77 37.89 41.00 39.99 38.46 36.54 36.01
MSLP
1017.63 1017.41 1017.43 1017.59 1017.82 1018.00 1018.13 1018.21 1018.33 1018.43 1018.37 1018.38 1018.41 1018.45 1018.43 1018.38 1018.35 1018.31 1018.31 1018.25 1018.18 1018.09 1017.95 1017.88 1017.88 1017.87 1017.85 1017.84 1017.84 1017.83 1017.80 1017.76 1017.80 1017.78 1017.70 1017.64 1017.52 1017.38 1017.33 1017.27 1017.29 1017.28 1017.21
1017.05 1017.45 1017.52 1017.71 1017.99 1018.20 1018.36 1018.37 1018.46 1018.53 1018.51 1018.46 1018.48 1018.43 1018.45 1018.44 1018.41 1018.40 1018.39 1018.36 1018.27 1018.21 1018.09 1018.02 1017.95 1017.89 1017.89 1017.86 1017.88 1017.88 1017.83 1017.80 1017.75 1017.74 1017.69 1017.69 1017.61 1017.49 1017.37 1017.32 1017.28 1017.35 1017.32
1016.99 1017.41 1017.67 1017.90 1018.14 1018.40 1018.53 1018.56 1018.62 1018.71 1018.72 1018.68 1018.68 1018.69 1018.74 1018.78 1018.78 1018.70 1018.64 1018.60 1018.50 1018.42 1018.27 1018.12 1018.08 1017.96 1017.89 1017.83 1017.82 1017.79 1017.75 1017.72 1017.70 1017.66 1017.58 1017.60 1017.56 1017.39 1017.31 1017.31 1017.24 1017.21 1017.19
1016.91 1017.42 1017.85 1018.07 1018.22 1018.47 1018.69 1018.80 1018.89 1019.01 1019.00 1019.00 1018.99 1019.05 1019.07 1019.12 1019.07 1019.06 1018.96 1018.92 1018.83 1018.75 1018.65 1018.50 1018.38 1018.25 1018.07 1017.88 1017.78 1017.66 1017.59 1017.56 1017.56 1017.50 1017.40 1017.33 1017.30 1017.05 1017.25 1017.26 1017.21 1017.09 1017.04
1017.22 1017.61 1017.99 1018.20 1018.45 1018.66 1018.89 1019.06 1019.13 1019.24 1019.30 1019.36 1019.37 1019.35 1019.32 1019.38 1019.35 1019.32 1019.34 1019.28 1019.14 1019.08 1018.91 1018.75 1018.61 1018.51 1018.36 1018.19 1017.99 1017.70 1017.52 1017.42 1017.44 1017.40 1017.33 1017.20 1017.04 1016.83 1016.97 1017.01 1017.05 1017.03 1016.99
1017.55 1018.10 1018.28 1018.50 1018.72 1018.84 1019.03 1019.25 1019.36 1019.50 1019.59 1019.64 1019.71 1019.67 1019.62 1019.63 1019.61 1019.65 1019.61 1019.52 1019.44 1019.32 1019.16 1018.93 1018.79 1018.65 1018.54 1018.33 1018.14 1017.95 1017.82 1017.64 1017.51 1017.43 1017.29 1017.14 1016.86 1016.66 1016.66 1016.74 1016.79 1016.84 1016.84
1018.10 1018.44 1018.63 1018.77 1018.91 1019.12 1019.31 1019.44 1019.60 1019.72 1019.86 1019.89 1019.96 1019.96 1019.90 1019.84 1019.85 1019.89 1019.84 1019.75 1019.60 1019.52 1019.34 1019.08 1018.94 1018.75 1018.63 1018.45 1018.21 1018.03 1017.94 1017.78 1017.61 1017.44 1017.17 1016.92 1016.75 1016.41 1016.33 1016.52 1016.57 1016.63 1016.66
1018.07 1018.75 1018.95 1019.20 1019.19 1019.30 1019.56 1019.75 1019.86 1019.97 1020.08 1020.09 1020.09 1020.08 1020.03 1020.03 1020.06 1020.08 1020.05 1019.91 1019.76 1019.65 1019.48 1019.21 1019.06 1018.77 1018.61 1018.39 1018.19 1018.03 1017.92 1017.80 1017.68 1017.54 1017.14 1016.81 1016.46 1016.18 1016.16 1016.38 1016.42 1016.46 1016.47
1018.23 1018.85 1019.31 1019.59 1019.67 1019.68 1019.77 1019.96 1020.14 1020.12 1020.18 1020.17 1020.12 1020.15 1020.23 1020.26 1020.22 1020.22 1020.14 1020.04 1019.89 1019.72 1019.54 1019.23 1019.05 1018.77 1018.57 1018.31 1018.08 1017.97 1017.83 1017.81 1017.79 1017.56 1017.19 1016.73 1016.40 1016.02 1016.06 1016.33 1016.43 1016.26 1016.21
1018.47 1018.96 1019.47 1019.78 1019.98 1020.03 1020.08 1020.08 1020.24 1020.23 1020.25 1020.21 1020.22 1020.17 1020.31 1020.34 1020.21 1020.25 1020.21 1020.12 1019.98 1019.79 1019.50 1019.34 1019.03 1018.74 1018.52 1018.27 1018.03 1017.80 1017.73 1017.74 1017.65 1017.34 1016.96 1016.50 1016.23 1016.17 1016.37 1016.43 1016.39 1016.30 1016.19
1018.96 1019.20 1019.38 1019.76 1020.00 1020.08 1020.13 1020.18 1020.32 1020.31 1020.44 1020.43 1020.39 1020.29 1020.38 1020.43 1020.26 1020.24 1020.24 1020.12 1020.07 1019.87 1019.61 1019.35 1019.08 1018.89 1018.64 1018.45 1018.18 1017.91 1017.75 1017.72 1017.58 1017.32 1017.09 1016.67 1016.49 1016.44 1016.48 1016.44 1016.48 1016.38 1016.33
1019.40 1019.39 1019.44 1019.75 1019.87 1020.01 1019.97 1020.27 1020.48 1020.51 1020.67 1020.63 1020.69 1020.65 1020.53 1020.54 1020.47 1020.37 1020.38 1020.28 1020.19 1019.98 1019.85 1019.60 1019.35 1019.11 1018.87 1018.74 1018.45 1018.12 1018.02 1017.76 1017.70 1017.60 1017.48 1017.06 1016.80 1016.64 1016.58 1016.56 1016.44 1016.49 1016.43
1019.40 1019.60 1019.55 1019.73 1019.84 1019.88 1020.18 1020.48 1020.55 1020.78 1020.84 1020.94 1021.00 1020.93 1020.85 1020.79 1020.83 1020.84 1020.73 1020.72 1020.54 1020.35 1020.28 1020.00 1019.77 1019.45 1019.16 1018.92 1018.64 1018.41 1018.16 1017.92 1018.00 1017.88 1017.71 1017.36 1017.07 1016.87 1016.80 1016.71 1016.73 1016.63 1016.49
1019.68 1019.85 1019.81 1019.76 1019.93 1020.09 1020.21 1020.47 1020.77 1020.86 1021.06 1021.13 1021.27 1021.11 1021.22 1021.29 1021.30 1021.26 1021.24 1021.11 1021.01 1020.80 1020.60 1020.37 1020.19 1019.72 1019.27 1019.03 1018.76 1018.61 1018.36 1018.16 1018.20 1018.24 1018.14 1017.86 1017.52 1017.41 1017.42 1017.32 1017.13 1016.97 1016.83
1019.95 1019.94 1019.97 1019.88 1020.18 1020.18 1020.12 1020.80 1020.89 1021.10 1021.30 1021.27 1021.40 1021.33 1021.38 1021.57 1021.63 1021.47 1021.49 1021.44 1021.35 1021.09 1020.94 1020.67 1020.38 1020.01 1019.57 1019.29 1018.81 1018.87 1018.54 1018.28 1018.46 1018.52 1018.64 1018.51 1018.36 1018.29 1018.18 1017.89 1017.71 1017.52 1017.28
1019.99 1019.97 1019.92 1020.22 1020.38 1020.20 1020.64 1020.72 1021.09 1021.17 1021.31 1021.46 1021.47 1021.46 1021.50 1021.58 1021.67 1021.71 1021.76 1021.78 1021.61 1021.38 1021.14 1020.80 1020.72 1020.36 1020.08 1019.62 1019.23 1019.06 1018.76 1018.57 1018.59 1018.83 1018.98 1018.95 1018.90 1018.78 1018.86 1018.61 1018.42 1018.29 1017.95
1019.80 1019.73 1019.99 1020.30 1020.43 1020.44 1020.66 1020.84 1021.12 1021.18 1021.34 1021.58 1021.50 1021.49 1021.51 1021.57 1021.72 1021.73 1022.06 1021.99 1021.81 1021.41 1021.22 1020.96 1020.73 1020.50 1020.45 1019.85 1019.81 1019.40 1019.03 1019.02 1019.04 1018.77 1018.94 1019.13 1019.46 1019.27 1019.47 1019.40 1019.16 1018.92 1018.63
1019.57 1019.81 1020.07 1020.19 1020.31 1020.62 1020.71 1020.97 1021.22 1021.32 1021.52 1021.52 1021.53 1021.62 1021.58 1021.61 1021.71 1021.82 1022.15 1022.00 1021.72 1021.52 1021.23 1021.17 1021.11 1020.98 1020.83 1020.57 1020.25 1019.89 1019.46 1019.29 1019.38 1019.38 1019.50 1019.57 1019.86 1019.83 1019.83 1019.77 1019.63 1019.48 1019.31
1019.47 1019.91 1020.17 1020.35 1020.32 1020.64 1020.72 1021.05 1021.36 1021.31 1021.54 1021.55 1021.71 1021.79 1021.70 1021.75 1021.77 1021.95 1022.15 1022.00 1021.72 1021.67 1021.47 1021.44 1021.40 1021.38 1021.25 1020.94 1020.46 1020.15 1019.87 1019.73 1019.58 1019.56 1019.74 1019.89 1020.01 1020.09 1020.20 1020.13 1020.09 1019.86 1019.64
1019.58 1019.96 1020.19 1020.34 1020.28 1020.53 1020.97 1021.17 1021.40 1021.49 1021.54 1021.62 1021.76 1021.81 1021.76 1021.91 1021.90 1022.12 1022.15 1022.03 1021.92 1021.83 1021.71 1021.73 1021.73 1021.46 1021.52 1021.27 1020.74 1020.38 1020.13 1019.97 1019.83 1019.94 1019.93 1019.93 1020.07 1020.17 1020.27 1020.43 1020.52 1020.43 1020.08
1019.70 1020.05 1020.10 1020.23 1020.36 1020.56 1021.07 1021.41 1021.71 1021.79 1021.68 1021.73 1021.67 1021.67 1021.71 1021.85 1021.87 1022.11 1022.24 1022.04 1022.02 1021.88 1021.89 1021.94 1021.84 1021.90 1021.68 1021.28 1021.06 1020.72 1020.45 1020.16 1020.10 1020.14 1020.11 1020.14 1020.19 1020.32 1020.37 1020.55 1020.68 1020.82 1020.78
1019.60 1019.84 1019.95 1020.07 1020.22 1020.52 1020.83 1021.15 1021.27 1021.49 1021.72 1021.68 1021.62 1021.63 1021.60 1021.65 1021.66 1021.95 1022.08 1021.91 1022.00 1021.88 1021.92 1022.00 1022.06 1022.20 1021.98 1021.53 1021.66 1021.69 1021.30 1020.76 1020.25 1020.15 1020.26 1020.33 1020.32 1020.35 1020.56 1020.72 1020.87 1020.95 1021.11
1019.38 1019.58 1019.73 1019.84 1020.02 1020.38 1020.74 1021.06 1021.36 1021.48 1021.81 1021.90 1021.76 1021.69 1021.45 1021.39 1021.53 1021.73 1021.66 1021.72 1021.81 1021.79 1021.93 1022.07 1022.13 1022.25 1022.25 1021.78 1021.54 1021.65 1021.66 1021.64 1021.12 1020.34 1020.26 1020.47 1020.51 1020.53 1020.68 1020.79 1020.93 1021.03 1021.18
1019.05 1019.30 1019.38 1019.66 1019.88 1020.27 1020.59 1020.97 1021.35 1021.71 1021.98 1021.90 1021.59 1021.47 1021.26 1021.29 1021.43 1021.45 1021.30 1021.44 1021.59 1021.70 1021.85 1021.90 1021.91 1022.09 1022.18 1022.14 1021.81 1021.41 1021.43 1021.50 1021.59 1021.28 1020.73 1020.62 1020.63 1020.70 1020.74 1020.76 1020.96 1021.00 1021.12
1018.71 1019.01 1019.28 1019.59 1019.76 1020.11 1020.43 1020.76 1021.25 1021.72 1021.71 1021.44 1021.42 1021.43 1021.47 1021.34 1021.30 1021.10 1020.99 1021.18 1021.43 1021.57 1021.67 1021.83 1021.92 1022.01 1021.99 1022.02 1021.97 1021.77 1021.68 1021.56 1021.54 1021.75 1021.70 1021.25 1021.08 1020.84 1020.76 1020.78 1020.82 1021.03 1021.02
1018.51 1018.81 1019.23 1019.54 1019.69 1019.89 1020.33 1020.76 1021.18 1021.49 1021.51 1021.60 1021.62 1021.67 1021.53 1021.44 1021.09 1020.83 1020.83 1020.94 1020.98 1021.11 1021.29 1021.40 1021.52 1021.70 1021.79 1021.87 1021.89 1021.87 1021.83 1021.92 1021.78 1021.86 1021.98 1021.71 1021.56 1020.96 1020.64 1020.67 1020.83 1020.96 1020.98
Wind_Speed
4 7 13 14 13 12 11 11 10 9 9 8 8 8 8 8 8 8 8 8 9 9 11 8 8 8 8 8 8 8 7 7 6 6 5 4 4 3 4 7 7 4 6
12 9 14 14 13 12 11 10 9 8 8 7 7 7 9 9 8 7 7 7 8 8 9 9 9 7 6 6 6 6 6 5 4 5 6 6 6 5 2 3 5 4 5
13 11 11 14 13 12 10 10 10 11 12 12 12 12 12 12 12 12 13 13 13 12 11 11 10 7 7 6 5 5 5 5 5 5 8 4 5 10 7 3 2 1 2
13 11 9 13 13 13 13 12 12 11 12 12 12 12 11 11 12 12 12 12 12 12 12 12 12 12 12 9 8 7 7 6 5 7 5 4 6 9 6 2 1 2 3
12 10 10 15 15 14 13 12 12 12 12 12 12 11 11 11 11 12 12 12 12 12 12 12 12 12 12 11 12 12 10 9 7 7 6 6 5 8 8 5 2 3 5
13 10 13 15 14 14 13 12 12 11 11 11 10 10 10 11 11 11 12 12 11 11 11 12 12 12 12 11 11 11 12 11 10 5 6 7 7 6 9 6 4 3 4
12 9 10 15 14 13 12 12 11 11 10 10 10 10 10 11 11 11 12 12 12 12 12 12 12 12 12 12 11 11 11 10 6 5 6 6 5 9 8 6 3 3 5
14 8 9 11 14 13 12 11 10 10 10 9 9 10 11 11 12 11 12 12 12 12 12 13 12 12 12 12 11 11 10 8 6 6 6 7 9 9 8 4 2 4 6
12 9 6 6 10 12 12 11 10 10 9 8 9 8 8 8 10 10 11 11 11 11 11 13 13 13 13 13 13 11 9 9 6 5 7 6 10 11 5 3 7 8 10
8 8 7 6 5 6 5 9 8 8 7 6 6 5 3 3 5 5 7 9 10 12 13 12 14 13 14 14 13 9 9 9 6 6 5 5 12 8 8 8 10 12 11
6 6 6 7 6 6 6 5 5 6 4 6 7 8 6 1 4 4 5 7 10 11 15 13 15 15 11 11 12 12 9 3 4 3 3 13 14 13 12 12 12 12 13
5 5 6 6 6 5 4 5 1 3 3 5 6 7 5 5 5 6 7 10 12 14 15 16 16 14 10 4 4 7 4 5 4 4 3 12 14 14 12 11 12 12 11
6 3 5 5 5 6 5 3 3 3 3 4 6 6 5 5 5 4 4 4 5 9 4 7 7 4 7 5 5 5 5 5 3 3 5 11 14 15 14 12 11 10 11
6 6 5 6 6 5 4 4 3 3 3 4 4 6 4 3 5 4 4 5 5 4 6 5 4 6 7 7 6 6 6 5 3 3 7 15 18 18 15 14 13 13 13
6 6 6 6 4 4 6 3 3 3 3 4 4 5 4 4 4 4 4 4 4 4 4 5 5 5 6 7 6 6 6 5 6 5 5 17 19 18 17 17 17 17 16
7 6 6 6 4 6 4 5 3 3 4 3 3 4 5 4 4 4 5 4 5 4 4 5 4 5 5 5 6 7 6 6 6 6 3 8 17 19 15 15 16 17 18
6 7 7 6 5 7 5 5 3 2 3 3 3 4 5 4 5 5 4 4 3 4 5 5 5 5 5 5 6 6 5 6 5 7 6 5 7 16 14 14 15 14 15
7 7 7 5 6 6 5 4 2 3 2 2 3 2 4 4 5 4 3 3 4 4 3 4 4 5 5 5 4 5 3 4 6 6 6 5 4 4 7 12 14 15 15
8 7 7 6 6 6 5 4 3 3 2 1 3 2 2 3 3 3 1 2 4 4 4 4 3 3 3 5 5 4 2 4 4 4 6 6 6 5 4 12 12 12 12
8 7 7 5 6 7 4 3 2 1 1 1 3 2 3 2 3 2 2 3 3 3 4 4 3 4 1 4 4 3 2 1 3 3 3 3 4 5 5 6 5 5 12
7 8 8 7 6 5 2 2 1 2 1 1 1 3 3 2 2 1 1 2 2 3 2 3 3 4 3 4 3 4 3 1 3 1 2 2 4 4 5 5 4 3 4
8 8 7 7 7 4 2 2 2 2 1 1 2 2 3 3 2 2 1 1 1 2 4 3 3 2 2 3 1 0 3 4 3 1 1 2 4 4 4 5 5 5 4
8 8 8 8 7 5 5 3 2 3 2 2 1 2 3 4 4 4 3 2 2 1 1 1 1 1 1 3 3 2 2 2 3 2 1 0 3 3 3 4 5 5 5
8 7 7 7 8 5 6 4 3 3 3 3 2 3 2 4 6 6 5 4 3 2 2 2 2 2 1 2 3 1 1 3 2 4 3 3 1 3 4 2 4 4 4
8 8 7 7 7 6 6 5 4 3 2 1 1 2 3 4 6 6 6 5 4 3 4 4 3 3 2 2 2 1 2 1 1 2 3 4 3 1 3 4 4 3 3
5 7 7 8 6 6 6 5 5 4 2 1 2 3 4 3 4 5 6 6 6 5 5 5 5 5 4 3 2 2 2 2 2 1 1 2 3 4 2 4 4 3 3
Wind_Direction
117 134 130 124 121 113 108 102 97 92 88 82 76 70 64 62 59 56 50 43 37 29 30 49 45 40 38 35 32 29 27 26 16 7 357 346 339 354 28 60 37 38 46
134 130 126 124 117 114 109 104 96 85 75 68 62 57 51 51 49 57 51 44 36 28 25 18 18 22 19 18 15 10 8 6 359 337 315 309 301 276 251 73 64 25 18
126 126 117 117 118 115 114 108 95 85 73 65 61 57 57 55 51 47 43 39 34 29 29 29 16 1 350 342 337 334 332 333 327 313 302 290 270 246 232 144 119 27 344
124 117 121 124 121 114 100 94 89 83 75 70 69 66 64 60 55 48 45 39 34 28 24 23 20 13 14 354 324 311 306 306 302 304 300 295 304 208 206 177 291 300 301
100 103 110 110 109 106 101 95 92 86 82 77 74 70 64 56 49 44 35 30 28 19 15 12 9 6 7 3 354 353 328 316 303 297 297 299 279 202 184 181 217 300 315
88 94 101 104 106 103 100 96 91 87 82 78 71 66 60 51 45 42 34 29 24 16 9 8 1 354 350 353 352 352 348 352 339 309 296 293 296 216 194 193 198 252 293
98 95 101 108 104 98 96 93 87 83 79 75 69 65 61 57 52 47 37 31 26 19 15 13 3 355 347 340 334 336 339 344 337 312 295 287 275 292 221 218 210 256 279
115 101 96 102 106 102 94 87 84 79 74 72 72 72 69 64 58 51 39 31 27 21 18 14 5 1 352 346 336 326 321 322 326 307 295 294 281 276 243 241 271 297 290
116 115 115 109 104 98 96 90 86 85 79 74 79 78 68 63 58 51 42 34 25 23 16 14 7 6 1 353 342 324 315 316 316 294 296 287 287 280 343 334 324 322 302
119 132 132 129 122 110 107 106 103 95 88 64 48 56 57 26 68 42 44 19 7 5 360 359 351 356 1 0 4 336 315 321 307 298 287 277 286 348 15 6 1 347 340
83 102 124 143 145 134 129 131 117 107 77 32 13 26 51 73 25 41 12 357 360 2 11 11 13 15 6 354 355 4 356 331 338 8 5 34 41 42 31 23 10 6 1
121 108 106 104 125 127 121 132 162 99 88 62 37 24 30 39 31 43 21 15 21 19 10 9 4 6 2 351 343 358 349 353 25 63 31 43 40 33 26 21 12 11 13
143 119 117 105 98 97 84 105 78 83 78 57 42 36 35 42 26 25 27 18 14 14 6 2 358 353 355 353 348 348 347 356 46 54 32 47 43 36 32 24 18 15 16
143 149 132 110 99 90 87 78 101 78 71 70 47 46 46 39 27 22 28 21 20 0 2 1 351 344 356 351 358 351 343 352 51 60 43 49 51 44 30 20 27 29 32
148 148 137 113 116 104 84 83 78 88 87 89 63 48 56 46 31 27 30 28 13 360 6 352 355 354 359 348 355 354 340 355 67 72 60 56 54 47 29 21 20 19 16
155 149 130 127 130 105 111 96 94 92 99 89 76 69 60 62 40 37 32 17 9 359 346 4 353 356 352 356 354 345 337 15 81 93 91 67 64 58 45 38 35 31 28
160 142 136 143 138 112 115 106 109 92 102 109 99 75 73 60 49 48 36 14 346 354 0 9 2 3 4 349 353 339 31 61 75 104 85 81 66 60 51 44 42 38 31
142 143 151 148 142 133 124 117 121 98 112 120 109 96 84 72 59 52 27 0 348 359 20 7 9 355 1 353 342 338 50 69 75 73 75 78 69 63 46 58 47 44 36
148 149 152 159 150 145 128 112 132 110 100 126 95 123 90 90 77 70 18 333 6 9 16 9 353 24 351 339 328 359 7 80 63 72 88 91 91 82 66 59 45 36 42
151 154 159 172 158 145 135 129 91 87 103 149 132 155 113 120 94 64 7 1 14 21 14 10 1 347 305 316 324 349 302 92 99 99 122 118 116 104 99 81 50 23 38
156 164 173 165 160 138 128 123 140 200 206 233 182 173 142 161 127 67 317 11 5 39 14 6 356 356 318 338 7 345 359 7 72 40 125 165 148 113 103 93 81 56 31
172 176 173 176 164 164 147 163 140 153 186 172 181 214 192 187 181 221 208 328 357 24 17 13 34 333 302 5 40 319 360 331 352 201 205 108 100 128 104 95 87 72 57
181 181 177 181 173 167 146 113 74 49 28 0 288 266 247 215 219 222 224 214 280 75 314 294 275 27 312 309 6 146 20 271 315 328 308 227 152 115 112 118 106 86 73
200 189 184 179 167 166 152 138 149 167 192 223 201 219 248 220 231 225 217 217 231 231 245 246 194 221 157 265 322 359 194 175 198 328 330 327 78 161 162 144 124 112 91
181 187 187 172 165 156 163 164 172 195 223 258 285 302 294 276 249 234 216 216 226 228 242 234 248 241 217 211 211 320 331 315 247 170 273 315 353 293 188 176 153 143 112
179 165 169 170 178 164 168 175 177 191 239 322 310 305 290 279 279 252 233 220 217 218 223 228 230 224 234 244 256 258 221 230 251 152 257 281 252 282 215 180 163 162 134